Left ArrowRight Arrow

44.5394, -95.11694

Hourly Observations for June 13, 2024

Temp ( °F °C ) Dew Point ( °F °C ) Humidity (%) Winds ( mph kmh ) Pressure ( in mb ) Visibility ( mi km ) Precip ( " mm )
12:53 am 00:53 Clear 74 23.3 65 18.3 74 74 Calm 29.69 1005 10 16 0.00 0.00
1:53 am 01:53 Clear 70 21.1 65 18.3 84 84 WSW 3 6 29.69 1005 10 16 0.00 0.00
2:53 am 02:53 Clear 70 21.1 65 18.3 84 84 WNW 5 7 29.69 1006 10 16 0.00 0.00
3:53 am 03:53 Clear 69 20.6 61 16.1 75 75 W 6 9 29.70 1006 10 16 0.00 0.00
4:53 am 04:53 Clear 63 17.2 58 14.4 84 84 W 6 9 29.72 1006 10 16 0.00 0.00
5:53 am 05:53 Sunny 64 17.8 59 15 84 84 W 8 13 29.75 1008 10 16 0.00 0.00
6:53 am 06:53 Mostly Sunny 65 18.3 56 13.3 73 73 W 10 17 29.80 1009 10 16 0.00 0.00
7:53 am 07:53 Cloudy with Light Rain 65 18.3 56 13.3 73 73 WNW 16 26 29.87 1011 7 11 0.01 0.13
8:53 am 08:53 Mostly Cloudy with Light Rain 63 17.2 57 13.9 81 81 W 8 13 29.88 1012 10 16 0.03 0.76
9:53 am 09:53 Mostly Cloudy 62 16.7 59 15 90 90 WNW 5 7 29.90 1012 10 16 0.01 0.13
10:53 am 10:53 Mostly Cloudy 65 18.3 58 14.4 78 78 SSW 5 7 29.86 1011 10 16 0.00 0.00
11:53 am 11:53 Sunny 70 21.1 60 15.6 71 71 NW 6 9 29.88 1012 10 16 0.01 0.13
12:53 pm 12:53 Sunny 76 24.4 61 16.1 60 60 NW 8 13 29.86 1011 10 16 0.00 0.00
1:53 pm 13:53 Sunny 79 26.1 59 15 50 50 NW 9 15 29.86 1011 10 16 0.00 0.00
2:53 pm 14:53 Sunny 81 27.2 58 14.4 45 45 NW 10 17 29.87 1012 10 16 0.00 0.00
3:53 pm 15:53 Sunny 82 27.8 51 10.6 34 34 NW 9 15 29.88 1012 10 16 0.00 0.00
4:53 pm 16:53 Sunny 83 28.3 46 7.8 28 28 NW 12 19 29.89 1012 10 16 0.00 0.00
5:53 pm 17:53 Sunny 83 28.3 49 9.4 31 31 WNW 9 15 29.89 1012 10 16 0.00 0.00
6:53 pm 18:53 Sunny 81 27.2 52 11.1 37 37 WNW 8 13 29.89 1012 10 16 0.00 0.00
7:53 pm 19:53 Sunny 79 26.1 50 10 36 36 WNW 7 11 29.90 1012 10 16 0.00 0.00
8:53 pm 20:53 Sunny 75 23.9 53 11.7 46 46 WSW 5 7 29.90 1013 10 16 0.00 0.00
9:53 pm 21:53 Clear 69 20.6 52 11.1 54 54 W 7 11 29.92 1013 10 16 0.00 0.00
10:53 pm 22:53 Clear 70 21.1 46 7.8 42 42 NW 8 13 29.95 1014 10 16 0.00 0.00
11:53 pm 23:53 Clear 67 19.4 47 8.3 49 49 NW 7 11 29.97 1015 10 16 0.00 0.00

Powered by Vaisala Xweather